TimeEST,TemperatureF,Dew PointF,Humidity,Sea Level PressureIn,VisibilityMPH,Wind Direction,Wind SpeedMPH,Gust SpeedMPH,PrecipitationIn,Events,Conditions,WindDirDegrees,DateUTC
12:53 AM,33.1,25.0,72,29.97,10.0,SSW,3.5,-,N/A,,Clear,210,2013-02-15 05:53:00
1:53 AM,33.1,26.1,75,29.96,10.0,Calm,Calm,-,N/A,,Mostly Cloudy,0,2013-02-15 06:53:00
2:53 AM,32.0,24.1,73,29.96,10.0,WSW,3.5,-,N/A,,Clear,250,2013-02-15 07:53:00
3:53 AM,32.0,24.1,73,29.97,10.0,WSW,3.5,-,N/A,,Clear,240,2013-02-15 08:53:00
4:53 AM,30.9,24.1,76,29.97,10.0,Calm,Calm,-,N/A,,Partly Cloudy,0,2013-02-15 09:53:00
5:53 AM,30.9,24.1,76,29.99,10.0,Calm,Calm,-,N/A,,Clear,0,2013-02-15 10:53:00
6:53 AM,28.9,24.1,82,30.01,10.0,Calm,Calm,-,N/A,,Clear,0,2013-02-15 11:53:00
7:53 AM,30.9,25.0,79,30.02,9.0,Variable,3.5,-,N/A,,Clear,0,2013-02-15 12:53:00
8:53 AM,39.9,28.0,63,30.04,10.0,Calm,Calm,-,N/A,,Clear,0,2013-02-15 13:53:00
9:53 AM,46.0,30.0,54,30.03,10.0,Calm,Calm,-,N/A,,Clear,0,2013-02-15 14:53:00
10:53 AM,50.0,30.0,46,30.02,10.0,WSW,10.4,-,N/A,,Clear,240,2013-02-15 15:53:00
11:53 AM,52.0,30.0,43,29.99,10.0,West,10.4,18.4,N/A,,Clear,260,2013-02-15 16:53:00
12:53 PM,52.0,28.9,41,29.96,10.0,West,4.6,-,N/A,,Mostly Cloudy,270,2013-02-15 17:53:00
1:53 PM,52.0,28.0,40,29.95,10.0,Calm,Calm,-,N/A,,Overcast,0,2013-02-15 18:53:00
2:53 PM,51.1,30.0,44,29.94,10.0,NW,8.1,-,N/A,,Overcast,310,2013-02-15 19:53:00
3:53 PM,44.1,34.0,68,29.98,7.0,NW,17.3,-,0.00,Rain,Light Rain,310,2013-02-15 20:53:00
4:09 PM,42.8,33.8,70,29.98,10.0,NW,9.2,-,0.00,Rain,Light Rain,310,2013-02-15 21:09:00
4:24 PM,42.8,33.8,70,29.98,8.0,NNW,8.1,-,0.01,Rain,Light Rain,330,2013-02-15 21:24:00
4:53 PM,42.1,35.1,76,29.99,10.0,NNW,4.6,-,0.03,Rain,Light Rain,340,2013-02-15 21:53:00
5:09 PM,41.0,35.6,81,29.97,10.0,North,5.8,-,0.00,,Overcast,10,2013-02-15 22:09:00
5:53 PM,41.0,35.1,79,30.00,10.0,NNW,4.6,-,0.00,Rain,Light Rain,340,2013-02-15 22:53:00
6:51 PM,37.4,33.8,87,30.00,10.0,NW,3.5,-,0.07,Rain,Light Rain,320,2013-02-15 23:51:00
6:53 PM,37.9,33.1,83,30.01,10.0,Calm,Calm,-,0.07,Rain,Light Rain,0,2013-02-15 23:53:00
7:02 PM,37.4,33.8,87,30.00,10.0,Calm,Calm,-,0.00,Rain,Light Rain,0,2013-02-16 00:02:00
7:13 PM,37.4,33.8,87,30.00,10.0,Calm,Calm,-,0.00,,Overcast,0,2013-02-16 00:13:00
7:31 PM,37.4,33.8,87,30.01,6.0,Calm,Calm,-,0.01,Rain,Light Rain,0,2013-02-16 00:31:00
7:53 PM,37.0,35.1,93,30.02,7.0,Calm,Calm,-,0.02,Rain,Light Rain,0,2013-02-16 00:53:00
8:15 PM,37.4,35.6,93,30.01,9.0,Calm,Calm,-,0.00,Rain,Light Rain,0,2013-02-16 01:15:00
8:53 PM,37.0,35.1,93,30.02,8.0,South,3.5,-,0.01,,Overcast,170,2013-02-16 01:53:00
9:53 PM,36.0,34.0,93,30.01,5.0,Calm,Calm,-,N/A,,Overcast,0,2013-02-16 02:53:00
10:53 PM,39.0,30.0,70,30.02,10.0,WNW,6.9,-,N/A,,Overcast,300,2013-02-16 03:53:00
11:53 PM,37.0,28.9,73,30.01,10.0,Calm,Calm,-,N/A,,Mostly Cloudy,0,2013-02-16 04:53:00